Regional Weather Roundup
Issued by NWS

Home | Current Version | Previous Version | Graphics & Text | Print | Product List | Glossary On
Versions: 1 2 3 4 5 6 7 8 9 10 11 12 13 14 15 16 17 18 19 20 21 22 23 24 25 26 27 28 29 30 31 32 33 34 35 36 37 38 39 40 41 42 43 44 45 46 47 48 49 50
000
ASUS45 KBOI 110510
RWRID
WEATHER ROUNDUP FOR IDAHO
NATIONAL WEATHER SERVICE BOISE ID
1100 PM MDT THU JUL 10 2014

NOTE: "FAIR" INDICATES FEW OR NO CLOUDS BELOW 12000 FEET
WITH NO SIGNIFICANT WEATHER AND/OR OBSTRUCTIONS TO VISIBILITY

IDZ012-014-110600-
SOUTHWEST IDAHO


CITY           SKY/WX    TMP DP  RH WIND       PRES   REMARKS
BOISE          CLEAR     84  51  31 CALM      29.84R
CALDWELL       CLEAR     73  55  53 NE5       29.84R
MOUNTAIN HOME  PTCLDY    81  43  26 CALM      29.85R
$$

IDZ016-017-110600-
SOUTHCENTRAL IDAHO


CITY           SKY/WX    TMP DP  RH WIND       PRES   REMARKS
BURLEY         CLEAR     65  55  70 S7        29.94R
JEROME         PTCLDY    76  48  37 SW3       29.94R
TWIN FALLS     PTCLDY    79  44  28 W9        29.95R
$$

IDZ019>023-110600-
SOUTHEAST IDAHO


CITY           SKY/WX    TMP DP  RH WIND       PRES   REMARKS
IDAHO FALLS    PTCLDY    78  48  34 SE7       30.00R
POCATELLO      CLEAR     73  40  30 S9        29.98R
REXBURG        PTCLDY    69  52  54 S3        30.01R
$$

IDZ006-010-011-018-031-032-110600-
CENTRAL IDAHO MOUNTAINS


CITY           SKY/WX    TMP DP  RH WIND       PRES   REMARKS
MCCALL         CLEAR     70  47  43 N6        30.02R
HAILEY         PTCLDY    72  39  30 NW9       30.02R
STANLEY          N/A     57  40  52 S5        30.15R
SALMON         CLEAR     70  46  43 SW5       29.91R
CHALLIS        CLEAR     73  37  27 CALM      30.00R
$$

IDZ002-004-006-007-026-110600-
NORTHERN IDAHO


CITY           SKY/WX    TMP DP  RH WIND       PRES   REMARKS
LEWISTON       CLEAR     79  32  18 CALM      29.82R
LOWELL           N/A     67  56  67 N3        29.87R
COEUR D`ALENE  CLEAR     72  54  53 E5        29.87R
MULLAN PASS    CLEAR     61  36  39 NW3       30.12R
$$


USA.gov is the U.S. government's official web portal to all federal, state and local government web resources and services.